| time (UTC) | temp F | wind direction | speed knots | gust knots | rain 1hr in | rain 24hr in | rain mn in | humidity % | barometer mb |
| 20260502193007 | 70 | 337 | 3.5 | 11.3 | 0.00 | 0.00 | 0.00 | 43 | 1015.3 |
| 20260502191502 | 69 | 207 | 3.5 | 11.3 | 0.00 | 0.00 | 0.00 | 46 | 1015.4 |
| 20260502190111 | 69 | 88 | 1.7 | 7.0 | 0.00 | 0.00 | 0.00 | 45 | 1015.4 |
| 20260502184602 | 67 | 86 | 2.6 | 10.4 | 0.00 | 0.00 | 0.00 | 48 | 1015.6 |
| 20260502183110 | 66 | 132 | 2.6 | 9.6 | 0.00 | 0.00 | 0.00 | 49 | 1015.7 |
| 20260502181552 | 65 | 33 | 2.6 | 9.6 | 0.00 | 0.00 | 0.00 | 51 | 1015.7 |
| 20260502163040 | 60 | 49 | 2.6 | 8.7 | 0.00 | 0.00 | 0.00 | 58 | 1016.0 |
| 20260502161533 | 59 | 268 | 3.5 | 9.6 | 0.00 | 0.00 | 0.00 | 60 | 1016.1 |
| 20260502151522 | 52 | 336 | 0.9 | 2.6 | 0.00 | 0.00 | 0.00 | 68 | 1016.1 |
| 20260502123016 | 49 | 137 | 0.0 | 0.0 | 0.00 | 0.00 | 0.00 | 70 | 1015.9 |
| 20260502121514 | 50 | 137 | 0.0 | 0.9 | 0.00 | 0.00 | 0.00 | 70 | 1016.2 |
| 20260502114510 | 50 | 137 | 0.0 | 3.5 | 0.00 | 0.00 | 0.00 | 70 | 1016.4 |
| 20260502113007 | 50 | 176 | 0.0 | 2.6 | 0.00 | 0.00 | 0.00 | 70 | 1016.8 |
| 20260502111515 | 49 | 269 | 0.0 | 0.9 | 0.00 | 0.00 | 0.00 | 69 | 1016.6 |
| 20260502110007 | 49 | 270 | 0.0 | 0.9 | 0.00 | 0.00 | 0.00 | 69 | 1016.2 |
| 20260502104504 | 49 | 269 | 0.0 | 0.0 | 0.00 | 0.00 | 0.00 | 68 | 1016.0 |
| 20260502103002 | 49 | 269 | 0.0 | 0.0 | 0.00 | 0.00 | 0.00 | 68 | 1016.1 |
| 20260502101559 | 50 | 270 | 0.0 | 0.0 | 0.00 | 0.00 | 0.00 | 67 | 1016.2 |
| 20260502090106 | 51 | 269 | 0.0 | 0.0 | 0.00 | 0.00 | 0.00 | 67 | 1016.3 |
| 20260502070037 | 54 | 269 | 0.0 | 0.0 | 0.00 | 0.00 | 0.00 | 62 | 1015.9 |
| 20260502064535 | 55 | 269 | 0.0 | 0.0 | 0.00 | 0.00 | 0.00 | 62 | 1015.7 |
| 20260502063035 | 55 | 269 | 0.0 | 0.0 | 0.00 | 0.00 | 0.00 | 61 | 1015.7 |
| 20260502061534 | 56 | 269 | 0.0 | 0.9 | 0.00 | 0.00 | 0.00 | 62 | 1016.0 |
| 20260502060034 | 56 | 269 | 0.0 | 0.9 | 0.00 | 0.00 | 0.00 | 61 | 1015.6 |
| 20260502054534 | 56 | 269 | 0.0 | 0.9 | 0.00 | 0.00 | 0.00 | 60 | 1015.5 |
| 20260502053034 | 57 | 269 | 0.0 | 0.9 | 0.00 | 0.00 | 0.00 | 58 | 1015.5 |
| 20260502051540 | 58 | 271 | 0.0 | 1.7 | 0.00 | 0.00 | 0.00 | 57 | 1015.4 |
| 20260502050037 | 58 | 271 | 0.0 | 1.7 | 0.00 | 0.00 | 0.00 | 57 | 1015.2 |
| 20260502044536 | 58 | 271 | 0.0 | 1.7 | 0.00 | 0.00 | 0.00 | 57 | 1015.1 |
| 20260502043030 | 58 | 270 | 0.0 | 0.9 | 0.00 | 0.00 | 0.00 | 57 | 1014.9 |
| 20260502041545 | 59 | 311 | 0.0 | 2.6 | 0.00 | 0.00 | 0.00 | 57 | 1014.7 |
| 20260502040030 | 59 | 115 | 0.0 | 1.7 | 0.00 | 0.00 | 0.00 | 54 | 1014.6 |
| 20260502034529 | 61 | 116 | 0.0 | 0.9 | 0.00 | 0.00 | 0.00 | 51 | 1014.4 |
| 20260502033028 | 61 | 116 | 0.0 | 1.7 | 0.00 | 0.00 | 0.00 | 49 | 1014.0 |
| 20260502031527 | 61 | 116 | 0.0 | 1.7 | 0.00 | 0.00 | 0.00 | 49 | 1013.9 |
| 20260502030027 | 62 | 115 | 0.0 | 2.6 | 0.00 | 0.00 | 0.00 | 48 | 1013.7 |
| 20260502024526 | 63 | 69 | 0.0 | 3.5 | 0.00 | 0.00 | 0.00 | 48 | 1013.6 |
| 20260502023025 | 64 | 124 | 0.9 | 3.5 | 0.00 | 0.00 | 0.00 | 44 | 1013.3 |
| 20260502021524 | 66 | 85 | 1.7 | 5.2 | 0.00 | 0.00 | 0.00 | 42 | 1013.3 |
| 20260502020024 | 67 | 76 | 0.9 | 5.2 | 0.00 | 0.00 | 0.00 | 40 | 1013.4 |
| 20260502014527 | 68 | 160 | 1.7 | 8.7 | 0.00 | 0.00 | 0.00 | 41 | 1013.4 |
| 20260502013022 | 68 | 157 | 2.6 | 7.8 | 0.00 | 0.00 | 0.00 | 43 | 1013.4 |
| 20260502011521 | 68 | 279 | 2.6 | 7.0 | 0.00 | 0.00 | 0.00 | 42 | 1013.5 |
| 20260502010023 | 69 | 171 | 2.6 | 5.2 | 0.00 | 0.00 | 0.00 | 39 | 1013.6 |
| 20260502004518 | 69 | 61 | 1.7 | 7.0 | 0.00 | 0.00 | 0.00 | 40 | 1013.6 |
| 20260502003017 | 70 | 105 | 2.6 | 7.8 | 0.00 | 0.00 | 0.00 | 40 | 1013.5 |
| 20260502001515 | 70 | 323 | 1.7 | 8.7 | 0.00 | 0.00 | 0.00 | 40 | 1013.7 |
| 20260502000016 | 71 | 71 | 1.7 | 4.3 | 0.00 | 0.00 | 0.00 | 41 | 1013.6 |
| 20260501234513 | 72 | 76 | 1.7 | 7.0 | 0.00 | 0.00 | 0.00 | 40 | 1013.6 |
| 20260501233112 | 71 | 259 | 2.6 | 8.7 | 0.00 | 0.00 | 0.00 | 39 | 1013.8 |
| 20260501231509 | 72 | 267 | 3.5 | 9.6 | 0.00 | 0.00 | 0.00 | 39 | 1014.0 |
| 20260501230009 | 72 | 64 | 1.7 | 7.8 | 0.00 | 0.00 | 0.00 | 39 | 1014.2 |
| 20260501224505 | 71 | 56 | 1.7 | 7.0 | 0.00 | 0.00 | 0.00 | 39 | 1014.3 |
| 20260501223003 | 72 | 92 | 0.9 | 5.2 | 0.00 | 0.00 | 0.00 | 40 | 1014.5 |
| 20260501221502 | 73 | 185 | 2.6 | 7.0 | 0.00 | 0.00 | 0.00 | 43 | 1014.6 |
| 20260501220101 | 71 | 150 | 0.9 | 5.2 | 0.00 | 0.00 | 0.00 | 43 | 1014.9 |
| 20260501214600 | 72 | 290 | 1.7 | 4.3 | 0.00 | 0.00 | 0.00 | 40 | 1014.8 |
| 20260501213101 | 72 | 118 | 1.7 | 6.1 | 0.00 | 0.00 | 0.00 | 41 | 1014.7 |
| 20260501211558 | 73 | 323 | 0.9 | 2.6 | 0.00 | 0.00 | 0.00 | 41 | 1014.8 |
| 20260501210059 | 72 | 70 | 1.7 | 4.3 | 0.00 | 0.00 | 0.00 | 40 | 1014.9 |
| 20260501204618 | 72 | 333 | 1.7 | 4.3 | 0.00 | 0.00 | 0.00 | 38 | 1014.9 |
| 20260501203053 | 74 | 281 | 0.9 | 4.3 | 0.00 | 0.00 | 0.00 | 38 | 1014.9 |
| 20260501201552 | 73 | 298 | 2.6 | 4.3 | 0.00 | 0.00 | 0.00 | 37 | 1015.0 |
| 20260501200047 | 72 | 258 | 1.7 | 5.2 | 0.00 | 0.00 | 0.00 | 38 | 1015.1 |
| 20260501194545 | 70 | 337 | 0.9 | 6.1 | 0.00 | 0.00 | 0.00 | 43 | 1015.2 |